• In Czech Republic
  • List of Countries
  • For 7 days
  • Water Temperature
  • Satellite Maps
  • Weather Map
  • Weather Widgets
  • user-avatar
    Login

    Hourly Weather Świerzawa

    Today, 18 January, Thursday

    Time Temperature Precipitation Wind Pressure Humidity
    00:00 -4°C° 0.1 mm 5 mps 724 mmHg 85%
    01:00 -3°C° 0 mm 4 mps 724 mmHg 88%
    02:00 -3°C° 0 mm 4 mps 724 mmHg 87%
    03:00 -3°C° 0 mm 4 mps 725 mmHg 86%
    04:00 -4°C° 0 mm 5 mps 725 mmHg 86%
    05:00 -3°C° 0 mm 4 mps 725 mmHg 85%
    06:00 -3°C° 0 mm 4 mps 725 mmHg 85%
    07:00 -3°C° 0 mm 4 mps 725 mmHg 86%
    08:00 -3°C° 0 mm 4 mps 724 mmHg 83%
    09:00 -2°C° 0 mm 5 mps 723 mmHg 81%
    10:00 -1°C° 0 mm 5 mps 723 mmHg 78%
    11:00 -2°C° 0.5 mm 6 mps 722 mmHg 79%
    12:00 -2°C° 0.5 mm 7 mps 720 mmHg 79%
    13:00 -1°C° 0 mm 7 mps 718 mmHg 80%
    14:00 0°C° 0.9 mm 8 mps 717 mmHg 80%
    15:00 0°C° 0.9 mm 9 mps 715 mmHg 79%
    16:00 +1°C° 0.9 mm 9 mps 714 mmHg 79%
    17:00 +1°C° 0.3 mm 10 mps 714 mmHg 76%
    18:00 +1°C° 0.3 mm 10 mps 714 mmHg 73%
    19:00 -1°C° 0.3 mm 11 mps 714 mmHg 70%
    20:00 -1°C° 0.1 mm 11 mps 714 mmHg 72%
    21:00 -2°C° 0.1 mm 11 mps 715 mmHg 73%
    22:00 -2°C° 0.1 mm 11 mps 716 mmHg 74%
    23:00 -3°C° 0 mm 11 mps 717 mmHg 76%

    Tomorrow, 19 January, Friday

    Time Temperature Precipitation Wind Pressure Humidity
    00:00 -3°C° 0 mm 10 mps 718 mmHg 77%
    01:00 -3°C° 0 mm 10 mps 719 mmHg 79%
    02:00 -4°C° 0 mm 8 mps 719 mmHg 81%
    03:00 -3°C° 0 mm 7 mps 720 mmHg 83%
    04:00 -3°C° 0 mm 6 mps 721 mmHg 85%
    05:00 -3°C° 0.1 mm 6 mps 722 mmHg 86%
    06:00 -2°C° 0.1 mm 5 mps 722 mmHg 87%
    07:00 -2°C° 0.1 mm 4 mps 723 mmHg 88%
    08:00 -2°C° 0.1 mm 4 mps 724 mmHg 88%
    09:00 -2°C° 0.1 mm 4 mps 724 mmHg 87%
    10:00 0°C° 0.1 mm 3 mps 725 mmHg 87%
    11:00 0°C° 0 mm 3 mps 725 mmHg 85%
    12:00 0°C° 0 mm 3 mps 725 mmHg 83%
    13:00 +1°C° 0 mm 3 mps 726 mmHg 82%
    14:00 0°C° 0 mm 3 mps 726 mmHg 84%
    15:00 +1°C° 0 mm 2 mps 726 mmHg 86%
    16:00 -1°C° 0 mm 2 mps 726 mmHg 89%
    17:00 -1°C° 0 mm 2 mps 727 mmHg 90%
    18:00 -2°C° 0 mm 2 mps 727 mmHg 90%
    19:00 -2°C° 0 mm 2 mps 727 mmHg 91%
    20:00 -2°C° 0.1 mm 3 mps 728 mmHg 90%
    21:00 -2°C° 0.1 mm 3 mps 728 mmHg 89%
    22:00 -1°C° 0.1 mm 3 mps 728 mmHg 88%
    23:00 -3°C° 0.2 mm 4 mps 728 mmHg 88%

    Day after tomorrow, 20 January, Saturday

    Time Temperature Precipitation Wind Pressure Humidity
    00:00 -3°C° 0.2 mm 4 mps 728 mmHg 88%
    01:00 -3°C° 0.2 mm 4 mps 729 mmHg 88%
    02:00 -4°C° 0 mm 4 mps 728 mmHg 88%
    03:00 -4°C° 0 mm 3 mps 728 mmHg 88%
    04:00 -4°C° 0 mm 3 mps 728 mmHg 88%
    05:00 -4°C° 0.1 mm 3 mps 727 mmHg 88%
    06:00 -4°C° 0.1 mm 3 mps 727 mmHg 88%
    07:00 -4°C° 0.1 mm 3 mps 727 mmHg 89%
    08:00 -2°C° 0.2 mm 3 mps 727 mmHg 88%
    09:00 -2°C° 0.2 mm 3 mps 727 mmHg 87%
    10:00 -1°C° 0.2 mm 3 mps 727 mmHg 87%
    11:00 -1°C° 0.1 mm 3 mps 727 mmHg 85%
    12:00 0°C° 0.1 mm 3 mps 727 mmHg 83%
    13:00 -1°C° 0.1 mm 4 mps 727 mmHg 81%
    14:00 0°C° 0 mm 3 mps 727 mmHg 82%
    15:00 -1°C° 0 mm 2 mps 726 mmHg 83%
    16:00 -1°C° 0 mm 2 mps 726 mmHg 84%
    17:00 -2°C° 0 mm 2 mps 726 mmHg 85%
    18:00 -1°C° 0 mm 1 mps 726 mmHg 87%
    19:00 -1°C° 0 mm 1 mps 726 mmHg 88%
    20:00 -1°C° 0 mm 1 mps 726 mmHg 87%
    21:00 -1°C° 0 mm 1 mps 726 mmHg 87%
    22:00 -1°C° 0 mm 1 mps 726 mmHg 87%
    23:00 -1°C° 0 mm 1 mps 726 mmHg 87%

    21 January, Sunday

    Time Temperature Precipitation Wind Pressure Humidity
    00:00 -1°C° 0 mm 1 mps 726 mmHg 87%
    01:00 -1°C° 0 mm 1 mps 726 mmHg 87%
    02:00 -1°C° 0.1 mm 1 mps 726 mmHg 88%
    03:00 -1°C° 0.1 mm 1 mps 726 mmHg 88%
    04:00 -3°C° 0.1 mm 2 mps 726 mmHg 89%
    05:00 -3°C° 0 mm 2 mps 727 mmHg 90%
    06:00 -4°C° 0 mm 2 mps 728 mmHg 91%
    07:00 -4°C° 0 mm 2 mps 729 mmHg 93%
    08:00 -3°C° 0 mm 2 mps 730 mmHg 91%
    09:00 -3°C° 0 mm 2 mps 731 mmHg 89%
    10:00 -2°C° 0 mm 2 mps 732 mmHg 88%
    11:00 -2°C° 0 mm 2 mps 732 mmHg 86%
    12:00 -1°C° 0 mm 2 mps 733 mmHg 84%
    13:00 -1°C° 0 mm 2 mps 733 mmHg 82%
    14:00 -1°C° 0 mm 2 mps 734 mmHg 84%
    15:00 0°C° 0 mm 1 mps 734 mmHg 86%
    16:00 -1°C° 0 mm 1 mps 734 mmHg 88%
    17:00 -1°C° 0 mm 1 mps 735 mmHg 89%
    18:00 -2°C° 0 mm 1 mps 735 mmHg 90%
    19:00 -2°C° 0 mm 1 mps 735 mmHg 91%
    20:00 -2°C° 0 mm 1 mps 735 mmHg 91%
    21:00 -2°C° 0 mm 1 mps 736 mmHg 91%
    22:00 -3°C° 0 mm 1 mps 736 mmHg 90%
    23:00 -3°C° 0 mm 1 mps 736 mmHg 90%

    22 January, Monday

    Time Temperature Precipitation Wind Pressure Humidity
    00:00 -3°C° 0 mm 1 mps 736 mmHg 89%
    01:00 -5°C° 0 mm 2 mps 736 mmHg 89%
    02:00 -5°C° 0 mm 2 mps 736 mmHg 88%
    03:00 -5°C° 0 mm 2 mps 736 mmHg 88%
    04:00 -5°C° 0 mm 2 mps 736 mmHg 87%
    05:00 -5°C° 0 mm 2 mps 735 mmHg 86%
    06:00 -5°C° 0 mm 2 mps 735 mmHg 85%
    07:00 -5°C° 0 mm 2 mps 735 mmHg 84%
    08:00 -5°C° 0 mm 3 mps 735 mmHg 81%
    09:00 -4°C° 0 mm 3 mps 736 mmHg 78%
    10:00 -4°C° 0 mm 3 mps 736 mmHg 75%
    11:00 -2°C° 0 mm 3 mps 735 mmHg 73%
    12:00 -2°C° 0 mm 4 mps 735 mmHg 70%
    13:00 -1°C° 0 mm 4 mps 735 mmHg 68%
    14:00 -2°C° 0 mm 4 mps 735 mmHg 71%
    15:00 -2°C° 0 mm 4 mps 734 mmHg 73%
    16:00 -3°C° 0 mm 4 mps 734 mmHg 75%
    17:00 -3°C° 0 mm 4 mps 734 mmHg 77%
    18:00 -4°C° 0 mm 5 mps 734 mmHg 78%
    19:00 -4°C° 0 mm 5 mps 733 mmHg 79%
    20:00 -4°C° 0.3 mm 5 mps 733 mmHg 81%
    21:00 -2°C° 0.3 mm 5 mps 732 mmHg 82%
    22:00 -3°C° 0.3 mm 6 mps 732 mmHg 84%
    23:00 -2°C° 1.1 mm 6 mps 731 mmHg 85%

    23 January, Tuesday

    Time Temperature Precipitation Wind Pressure Humidity
    00:00 -1°C° 1.1 mm 6 mps 731 mmHg 87%
    01:00 +1°C° 1.1 mm 6 mps 730 mmHg 88%
    02:00 +1°C° 0.1 mm 6 mps 730 mmHg 88%
    03:00 +2°C° 0.1 mm 6 mps 730 mmHg 89%
    04:00 +3°C° 0.1 mm 6 mps 729 mmHg 90%
    05:00 +3°C° 0.1 mm 6 mps 730 mmHg 90%
    06:00 +3°C° 0.1 mm 6 mps 730 mmHg 90%
    07:00 +3°C° 0.1 mm 6 mps 730 mmHg 90%
    08:00 +3°C° 0.1 mm 6 mps 730 mmHg 90%
    09:00 +3°C° 0.1 mm 6 mps 731 mmHg 90%
    10:00 +3°C° 0.1 mm 6 mps 731 mmHg 89%
    11:00 +3°C° 0.3 mm 6 mps 731 mmHg 89%
    12:00 +3°C° 0.3 mm 6 mps 732 mmHg 89%
    13:00 +3°C° 0.3 mm 6 mps 732 mmHg 89%
    14:00 +3°C° 0.3 mm 6 mps 732 mmHg 90%
    15:00 +3°C° 0.3 mm 5 mps 732 mmHg 91%
    16:00 +3°C° 0.3 mm 5 mps 733 mmHg 92%
    17:00 +3°C° 0.1 mm 5 mps 733 mmHg 91%
    18:00 +3°C° 0.1 mm 6 mps 734 mmHg 89%
    19:00 +3°C° 0.1 mm 6 mps 734 mmHg 88%
    20:00 +3°C° 0.1 mm 6 mps 735 mmHg 88%
    21:00 +2°C° 0.1 mm 7 mps 736 mmHg 87%
    22:00 +2°C° 0.1 mm 7 mps 737 mmHg 87%
    23:00 +2°C° 0 mm 6 mps 737 mmHg 87%
    Show more